Pellston, MI

12:03 PM EST on February 20, 2017 (GMT -0500)
Pellston Regional Airport Of Emmet County

Weather History for KPLN - December, 2011

Change the Weather History Date:

Wednesday, December 28, 2011

  Actual Average Record
Temperature  
Mean Temperature 10 °F -  
Max Temperature 16 °F 28 °F 49 °F (1982)
Min Temperature 3 °F 12 °F -20 °F (2000)
Degree Days  
Heating Degree Days 56    
Moisture  
Dew Point 5 °F    
Average Humidity 76    
Maximum Humidity 88    
Minimum Humidity 59    
Precipitation  
Precipitation 0.00 in - - ()
Sea Level Pressure  
Sea Level Pressure 30.01 in    
Wind  
Wind Speed 8 mph (NNW)    
Max Wind Speed 16 mph    
Max Gust Speed 23 mph    
Visibility 10 miles    
Events      
Averages and records for this station are not official NWS values.
T = Trace of Precipitation, MM = Missing Value Source: NWS Daily Summary

Daily Weather History Graph

Daily Weather History Graph

Search for Another Location

Airport or City:

Trip Planner

Search our weather history database for the weather conditions in past years. The results will help you decide how hot, cold, wet, or windy it might be!

Date:

Astronomy

Dec. 28, 2011 Rise Set
Actual Time 8:19 AM EST 5:02 PM EST
Civil Twilight 7:44 AM EST 5:36 PM EST
Nautical Twilight 7:07 AM EST 6:14 PM EST
Astronomical Twilight 6:31 AM EST 6:50 PM EST
Moon 10:32 AM EST (12/28) 9:52 PM EST (12/28)
Length of Visible Light 9h 51m
Length of Day
8h 43m
Waxing Crescent, 18% of the Moon is Illuminated
Dec 28
Waxing Crescent
Jan 1
First Quarter
Jan 9
Full
Jan 16
Last Quarter
Jan 23
New

Hourly Weather History & Observations

Time (EST) Temp. Windchill Dew Point Humidity Pressure Visibility Wind Dir Wind Speed Gust Speed Precip Events Conditions
12:54 AM 15.8 °F 0.3 °F 10.4 °F 79% 29.85 in 9.0 mi NNW 16.1 mph 23.0 mph N/A   Overcast
1:54 AM 15.1 °F -0.1 °F 9.0 °F 77% 29.91 in 9.0 mi NNW 15.0 mph - 0.00 in   Overcast
2:54 AM 12.9 °F -2.2 °F 7.0 °F 77% 29.94 in 10.0 mi NNW 13.8 mph - N/A   Overcast
3:46 AM 10.4 °F -3.3 °F 6.8 °F 85% 29.93 in 10.0 mi NNW 10.4 mph - N/A   Scattered Clouds
3:54 AM 10.9 °F -2.6 °F 6.1 °F 81% 29.97 in 10.0 mi NNW 10.4 mph - N/A   Partly Cloudy
4:54 AM 10.9 °F -1.8 °F 5.0 °F 77% 29.99 in 10.0 mi NNW 9.2 mph - N/A   Clear
5:54 AM 8.1 °F -3.2 °F 3.0 °F 80% 30.01 in 10.0 mi NW 6.9 mph - N/A   Clear
6:54 AM 7.0 °F - 3.0 °F 84% 30.03 in 10.0 mi Calm Calm - N/A   Clear
7:54 AM 6.1 °F -2.8 °F 1.9 °F 83% 30.04 in 10.0 mi North 4.6 mph - N/A   Clear
8:54 AM 3.9 °F - 1.0 °F 88% 30.06 in 10.0 mi Calm Calm - N/A   Clear
9:51 AM 10.4 °F 0.8 °F 6.8 °F 85% 30.03 in 10.0 mi North 5.8 mph - N/A   Mostly Cloudy
9:54 AM 10.9 °F 1.4 °F 6.1 °F 81% 30.08 in 10.0 mi North 5.8 mph - N/A   Mostly Cloudy
10:38 AM 12.2 °F 1.7 °F 5.0 °F 73% 30.03 in 10.0 mi North 6.9 mph - N/A   Scattered Clouds
10:54 AM 12.9 °F 3.8 °F 3.9 °F 67% 30.08 in 10.0 mi North 5.8 mph - N/A   Partly Cloudy
11:54 AM 14.0 °F 6.5 °F 3.9 °F 64% 30.06 in 10.0 mi NW 4.6 mph - N/A   Clear
12:54 PM 16.0 °F 8.8 °F 5.0 °F 62% 30.05 in 10.0 mi WNW 4.6 mph - N/A   Clear
1:54 PM 16.0 °F 8.8 °F 5.0 °F 62% 30.04 in 10.0 mi WNW 4.6 mph - N/A   Clear
2:54 PM 16.0 °F 10.4 °F 3.9 °F 59% 30.04 in 10.0 mi Variable 3.5 mph - N/A   Clear
3:54 PM 16.0 °F 10.4 °F 5.0 °F 62% 30.04 in 10.0 mi NNW 3.5 mph - N/A   Clear
4:54 PM 15.1 °F 9.4 °F 6.1 °F 68% 30.05 in 10.0 mi NNW 3.5 mph - N/A   Clear
5:54 PM 12.0 °F - 5.0 °F 73% 30.06 in 10.0 mi Calm Calm - N/A   Clear
6:54 PM 6.1 °F - 3.0 °F 87% 30.04 in 10.0 mi Calm Calm - N/A   Clear
7:54 PM 7.0 °F - 3.9 °F 87% 30.03 in 10.0 mi Calm Calm - N/A   Partly Cloudy
8:54 PM 9.0 °F - 6.1 °F 88% 30.01 in 10.0 mi Calm Calm - N/A   Scattered Clouds
9:54 PM 10.4 °F - 6.8 °F 85% 29.94 in 10.0 mi Calm Calm - N/A   Overcast
10:54 PM 15.1 °F 6.4 °F 8.1 °F 74% 29.97 in 10.0 mi SSE 5.8 mph - N/A   Overcast
11:54 PM 15.1 °F 3.3 °F 7.0 °F 70% 29.96 in 10.0 mi SSE 9.2 mph - N/A   Overcast